Theta_e
346 346 345 345 347 347 348 347 346 343 341 341 341 341 336 327 325 333 338 340 338 338 340 339 340 342 342 341 340 335 331 340 337 328 336 339 340 341 341 333 337 338 338
347 347 346 347 346 346 347 347 346 346 343 343 343 344 338 330 337 338 339 339 339 339 343 342 341 340 341 341 338 330 330 336 329 323 327 335 336 340 339 336 339 339 337
345 346 346 347 345 345 347 346 345 345 344 344 344 344 340 335 339 340 342 341 340 341 342 343 341 340 339 338 334 331 333 337 339 339 329 332 337 340 338 339 339 338 336
348 348 346 346 347 344 345 346 344 344 344 344 345 345 343 337 340 342 341 340 338 340 342 341 338 337 337 333 330 334 339 339 339 339 338 338 339 339 339 338 337 335 334
347 350 349 347 346 344 344 343 344 344 343 343 345 344 342 340 336 341 341 340 337 340 340 338 334 333 333 329 326 337 336 334 336 338 338 335 334 337 337 335 333 332 331
343 347 348 348 346 343 343 342 342 343 343 343 344 343 343 341 338 339 342 340 337 341 340 338 333 328 330 327 324 334 333 333 332 333 335 334 326 336 333 321 322 330 332
339 345 347 346 347 345 342 342 342 342 345 343 343 343 342 342 337 332 342 340 338 338 339 337 335 324 327 326 325 327 332 331 331 330 332 332 326 332 331 329 328 330 330
324 335 345 347 345 345 343 340 340 341 342 342 342 342 341 341 338 333 339 341 339 337 335 333 331 321 324 323 321 324 328 329 329 331 330 331 320 332 332 327 327 327 326
316 322 332 344 346 345 344 341 339 340 340 341 341 341 341 340 338 334 339 341 340 338 334 331 326 322 323 324 323 318 321 327 328 330 329 331 322 333 330 326 326 325 324
313 314 317 329 341 344 342 342 342 341 340 340 341 341 340 339 338 337 340 340 340 339 336 331 323 323 326 325 325 321 317 326 329 329 330 331 324 329 327 326 326 325 324
311 311 313 314 328 335 343 344 342 341 341 341 340 341 340 339 338 337 337 340 340 339 338 331 323 326 326 327 325 322 318 327 329 328 328 330 330 327 327 325 325 325 325
309 310 311 311 312 319 335 342 344 343 341 341 341 341 340 339 338 338 336 336 339 340 339 332 325 326 328 327 325 324 320 326 327 328 328 330 329 326 328 325 325 326 326
309 310 309 310 310 311 314 330 339 344 342 341 340 340 340 337 336 339 339 336 337 340 339 334 327 328 328 327 326 324 323 327 329 328 328 328 328 324 330 327 324 325 325
310 310 310 310 309 310 310 312 327 339 343 342 341 340 339 339 338 338 341 339 338 338 339 336 326 325 327 327 329 330 327 325 330 329 329 329 329 326 325 330 327 324 324
310 310 310 311 311 311 311 310 312 322 337 341 342 341 340 340 340 339 341 340 339 339 338 338 329 324 324 326 328 331 330 328 329 329 328 329 328 327 324 324 332 330 327
311 312 312 311 312 312 312 311 311 313 324 336 340 342 340 340 339 340 339 341 340 339 339 338 334 332 327 322 324 330 330 329 329 328 328 327 326 326 325 323 324 330 335
313 313 313 313 313 312 312 312 312 311 315 326 336 340 340 339 339 339 339 340 340 339 338 338 336 334 331 330 326 329 330 329 328 328 327 327 326 326 325 325 324 325 327
311 313 314 315 314 314 313 313 312 311 311 314 324 332 337 339 338 339 339 338 338 338 338 338 336 335 333 330 329 328 330 329 327 327 325 326 326 325 325 325 326 324 326
307 308 310 313 314 314 314 313 313 312 311 311 316 324 331 337 338 338 339 337 337 338 338 338 337 336 332 330 329 329 329 328 327 326 325 324 324 324 324 325 326 326 325
306 306 307 308 312 314 314 314 313 312 311 310 313 321 321 331 336 337 338 338 337 338 338 337 337 336 335 331 330 329 328 328 328 327 326 325 324 324 324 324 325 326 327
305 305 306 306 308 312 313 313 313 312 312 311 311 313 325 326 335 336 337 337 337 337 337 337 337 336 335 335 331 330 329 328 328 327 326 325 324 324 324 325 326 326 326
306 307 307 307 307 310 313 313 313 313 313 312 311 312 319 324 326 335 336 336 336 336 336 336 336 336 335 334 333 331 332 331 331 330 330 328 326 325 324 325 326 326 325
306 306 307 309 307 308 312 313 313 313 313 313 314 316 321 324 326 333 334 335 335 335 335 335 336 335 334 334 334 332 332 332 325 329 330 330 329 328 326 324 324 326 326
306 305 305 308 307 308 311 314 314 314 313 313 313 319 321 321 320 326 329 333 334 334 334 334 335 335 334 333 333 333 332 328 326 326 325 327 328 327 327 326 325 325 324
305 304 305 307 310 310 311 315 314 314 314 313 313 318 322 323 322 320 324 329 334 333 334 333 333 332 333 333 332 333 332 332 331 328 330 327 327 327 326 326 326 326 326
304 303 304 306 311 313 314 317 315 314 313 313 313 316 320 321 322 323 325 327 331 333 333 333 332 331 332 332 332 332 330 330 330 327 327 326 327 328 327 327 326 326 326
Wind_Speed
11 1 2 9 10 11 11 11 11 12 11 10 10 10 9 10 12 12 12 11 12 12 12 13 12 11 11 13 12 13 13 15 13 14 16 16 15 14 14 13 17 18 17
10 2 4 10 11 11 13 12 12 11 11 10 9 9 9 10 11 12 12 12 10 10 12 13 13 11 11 11 11 13 14 15 15 14 14 14 14 14 13 12 17 15 14
8 3 6 11 11 12 11 12 12 12 10 9 9 7 8 9 10 10 10 11 10 10 9 14 12 10 10 9 9 14 15 15 13 12 14 15 15 15 16 15 15 14 13
10 3 6 13 11 12 11 12 12 11 11 10 9 9 7 8 9 8 9 10 10 10 12 12 9 9 9 8 12 14 15 14 13 15 14 14 13 12 12 12 11 12 12
11 4 6 10 11 11 11 10 11 12 11 11 11 9 6 7 8 10 10 10 9 11 12 10 9 10 9 9 13 15 12 9 11 9 11 8 8 11 10 10 9 11 11
10 10 4 6 8 10 11 10 10 11 11 12 11 10 8 6 8 9 9 11 10 11 12 9 8 10 11 10 13 14 11 10 11 10 11 6 6 9 8 8 9 10 10
8 9 6 4 6 9 10 11 10 11 12 12 11 10 9 8 8 10 10 12 11 11 11 10 8 10 11 11 12 13 12 11 10 9 6 3 4 9 8 8 8 9 9
11 8 9 2 5 8 10 11 11 11 11 12 11 10 9 8 9 11 13 13 13 11 11 10 10 11 11 10 10 12 12 11 8 8 4 2 5 8 8 7 7 7 7
10 9 7 7 2 7 11 12 13 12 12 13 12 11 10 10 10 11 13 13 16 13 12 11 12 12 11 10 9 10 13 12 9 9 5 3 6 8 7 6 6 6 6
10 10 9 5 6 6 10 14 15 15 15 15 14 14 14 12 12 13 12 13 17 16 13 13 14 14 12 12 11 10 12 12 8 9 6 7 5 7 7 6 5 5 5
11 13 12 10 5 2 4 12 16 18 18 17 16 17 16 15 14 15 15 14 17 18 16 14 15 14 14 12 12 11 12 14 11 9 8 7 6 8 8 7 7 6 5
13 13 14 15 13 9 6 3 13 17 20 21 20 20 19 18 17 17 17 18 18 20 17 16 17 16 15 14 13 13 13 16 12 12 12 11 8 10 10 9 8 8 6
15 16 14 15 16 16 13 11 8 17 20 23 23 23 22 21 20 20 20 21 21 22 21 18 19 19 18 16 15 15 13 15 12 14 13 12 10 11 12 11 10 10 9
18 17 17 17 19 21 20 18 15 15 18 21 26 26 25 24 24 25 26 25 25 26 25 23 22 22 21 18 17 13 13 17 13 16 16 15 13 12 14 14 13 13 12
20 22 20 19 19 20 21 22 21 20 22 20 25 28 29 27 26 28 28 30 30 28 29 27 25 24 23 22 21 19 18 16 15 16 16 17 15 14 15 16 16 15 15
19 22 20 19 20 20 20 21 24 24 23 24 21 28 34 33 29 30 28 35 33 31 30 30 28 25 25 24 24 24 23 20 21 20 20 19 18 17 16 18 18 18 18
21 19 19 22 23 24 21 24 25 27 27 26 29 26 30 36 34 33 29 33 33 30 30 30 28 25 25 24 24 25 24 23 22 22 23 24 23 20 19 18 21 21 20
25 23 23 25 24 25 28 27 26 26 29 30 30 31 29 33 33 34 30 30 31 30 32 32 31 29 31 29 26 26 28 28 25 25 24 24 24 25 23 22 21 23 23
30 31 29 26 28 28 28 29 30 30 30 31 32 31 33 32 33 36 34 36 33 34 34 36 35 31 32 31 31 30 29 28 27 27 29 27 27 28 27 26 23 22 24
30 32 33 33 29 29 29 29 29 31 30 30 33 32 33 35 38 34 37 31 32 36 36 36 35 36 28 27 30 30 29 28 27 30 30 28 30 29 29 29 28 26 24
26 29 32 32 34 31 32 27 28 33 30 31 32 34 31 31 36 42 38 35 29 35 36 35 34 32 30 29 17 18 20 23 27 30 26 27 30 31 31 31 31 31 29
27 27 29 32 30 28 27 29 27 24 27 28 29 32 33 32 32 36 39 41 39 39 36 33 34 26 27 30 15 6 3 15 28 33 34 37 38 36 35 32 30 34 35
28 28 31 29 29 27 29 29 27 25 26 22 23 30 31 28 29 33 35 35 37 40 36 37 36 31 22 24 28 9 3 5 2 16 32 37 38 39 40 38 38 35 34
32 31 29 28 27 25 25 24 26 25 22 27 24 23 30 29 30 31 34 34 37 37 36 39 40 35 28 20 18 32 23 4 3 2 9 15 26 32 36 36 37 39 38
31 32 30 28 26 22 22 21 21 24 23 23 26 21 24 25 27 31 34 33 36 35 36 38 34 37 35 27 21 14 23 22 21 8 8 8 13 17 23 29 31 32 33
30 30 30 26 21 16 16 16 17 18 21 20 21 22 22 23 27 29 31 32 35 33 31 34 40 38 34 34 29 30 23 9 11 8 7 6 9 22 26 28 32 35 35
Wind_Direction
360 344 213 178 181 171 161 155 150 146 141 136 130 125 116 113 118 117 116 118 119 119 121 119 105 98 99 105 112 99 99 98 95 102 112 106 87 79 105 86 91 90 84
21 221 227 194 191 182 173 169 162 161 150 142 138 132 125 123 123 120 119 121 125 127 132 123 112 103 99 98 101 98 102 101 93 96 111 109 95 91 101 102 104 92 81
359 258 223 200 192 189 177 176 175 172 161 155 145 134 139 138 134 129 128 129 129 133 144 124 117 118 115 104 120 109 111 110 102 93 101 103 96 95 94 97 93 87 85
16 165 195 197 194 193 189 183 186 185 176 167 162 155 152 152 151 152 142 139 141 149 128 135 136 132 129 120 122 121 115 106 111 110 102 106 92 92 95 94 91 91 88
42 77 211 197 194 197 197 191 194 197 192 180 177 169 173 166 169 164 167 155 158 153 157 152 139 143 137 121 129 133 120 97 93 155 142 112 119 105 103 102 99 90 86
41 53 194 210 209 204 201 204 202 199 195 191 181 177 183 199 184 183 178 173 172 161 173 162 152 149 147 137 137 146 130 100 102 108 135 116 108 114 113 108 104 98 96
43 55 46 221 215 211 214 206 207 205 199 198 191 195 198 209 202 196 188 188 184 174 173 173 172 162 157 152 148 154 142 117 111 128 126 112 134 119 113 109 104 101 101
28 33 48 64 220 222 218 215 212 211 214 209 205 208 210 225 214 205 198 199 195 194 189 186 180 172 169 165 163 165 164 142 129 146 158 171 153 134 130 125 116 111 109
16 16 30 55 225 234 223 221 216 216 219 220 216 210 221 236 218 206 204 206 200 203 199 196 190 184 182 182 176 173 173 163 157 162 189 216 172 147 147 141 132 125 123
349 352 349 13 69 237 241 231 227 222 223 222 220 216 222 226 217 217 219 211 205 208 210 207 199 195 195 194 190 183 178 179 169 178 198 196 177 173 172 164 158 153 149
334 328 324 323 312 306 216 247 240 232 227 224 223 222 226 219 217 218 218 217 213 213 217 215 207 203 198 196 193 189 183 177 170 188 205 211 220 196 191 190 189 188 184
326 320 316 307 302 294 255 234 241 238 230 227 225 225 226 223 222 221 216 215 217 218 221 221 215 210 207 206 203 199 191 184 189 203 213 213 225 209 208 209 209 211 213
316 310 301 297 293 285 276 260 264 236 235 231 229 229 228 228 227 223 221 218 216 215 219 221 219 216 215 214 214 215 205 196 199 206 212 224 235 225 219 222 223 224 225
304 303 302 296 288 284 278 268 256 250 236 237 234 230 229 225 225 221 221 217 212 213 216 220 221 222 221 220 220 219 217 214 211 214 224 229 237 238 225 225 229 232 232
290 301 299 299 291 285 281 271 262 254 247 246 245 235 225 225 227 222 224 220 215 216 217 218 220 223 227 225 224 229 227 215 219 221 226 226 229 241 236 229 229 233 235
290 296 299 296 293 283 279 281 268 259 258 250 243 239 228 226 226 226 227 216 218 220 221 220 220 223 228 228 226 229 231 228 222 230 228 231 238 239 241 238 235 232 232
334 311 302 297 291 284 281 278 280 265 257 260 247 238 236 229 226 228 225 217 219 221 221 219 220 225 227 224 228 225 231 229 236 230 233 236 234 235 240 242 241 239 238
334 333 323 304 292 286 278 272 268 271 259 256 259 249 243 232 231 228 222 222 225 222 220 215 213 222 225 225 225 227 230 235 236 238 240 239 235 243 246 244 246 246 245
326 320 313 308 302 286 282 272 266 265 263 256 255 259 247 239 228 229 227 233 229 223 219 217 214 215 213 219 225 227 234 234 232 239 240 241 243 246 247 249 250 251 249
323 317 311 301 298 292 280 272 267 260 260 257 252 255 257 247 240 236 234 228 230 224 222 219 218 219 218 220 223 231 230 227 237 242 243 243 246 248 248 250 249 248 252
314 310 309 303 294 297 280 266 265 251 254 254 255 253 257 259 249 241 239 238 225 222 219 219 218 223 224 223 215 231 237 239 240 242 242 242 244 250 249 252 249 251 253
318 310 304 294 288 286 286 262 258 258 252 254 253 255 250 257 261 252 248 246 242 230 226 221 219 217 221 221 202 180 226 250 246 248 250 250 249 249 248 248 250 249 251
326 321 313 296 281 284 285 275 256 258 248 249 252 251 245 251 256 252 252 250 254 238 225 225 223 212 215 215 210 179 193 218 163 246 244 245 248 245 244 246 248 248 251
328 320 316 311 287 281 280 285 252 251 244 247 258 261 249 249 259 260 262 257 256 251 224 225 226 221 211 213 212 219 221 150 226 278 236 243 245 246 250 254 254 252 253
329 322 318 314 300 289 278 283 256 250 254 254 261 266 252 253 259 265 258 256 252 251 232 222 224 226 223 221 212 208 226 228 238 241 268 254 252 257 257 257 254 250 253
334 331 327 313 310 291 275 282 257 257 249 252 261 264 257 263 267 267 266 259 247 250 245 233 230 229 230 231 221 223 227 206 199 212 235 245 252 267 260 261 255 251 249